******** Week 336 almanac for PRN-01 ******** ID: 01 Health: 000 Eccentricity: 0.7700920105E-003 Time of Applicability(s): 503808.0000 Orbital Inclination(rad): 0.9592736873 Rate of Right Ascen(r/s): -0.7726036106E-008 SQRT(A) (m 1/2): 5153.611816 Right Ascen at Week(rad): -0.1397061018E+000 Argument of Perigee(rad): -0.021599693 Mean Anom(rad): 0.2696861438E+001 Af0(s): 0.3471374512E-003 Af1(s/s): 0.3637978807E-011 week: 336 ******** Week 336 almanac for PRN-02 ******** ID: 02 Health: 000 Eccentricity: 0.1657056808E-001 Time of Applicability(s): 503808.0000 Orbital Inclination(rad): 0.9650021468 Rate of Right Ascen(r/s): -0.7623174679E-008 SQRT(A) (m 1/2): 5153.616699 Right Ascen at Week(rad): -0.3029413567E+000 Argument of Perigee(rad): -0.929351924 Mean Anom(rad): -0.2128719670E+001 Af0(s): -0.6961822510E-004 Af1(s/s): 0.7275957614E-011 week: 336 ******** Week 336 almanac for PRN-03 ******** ID: 03 Health: 000 Eccentricity: 0.6387233734E-002 Time of Applicability(s): 503808.0000 Orbital Inclination(rad): 0.9911816861 Rate of Right Ascen(r/s): -0.7828897534E-008 SQRT(A) (m 1/2): 5153.665039 Right Ascen at Week(rad): 0.8415712216E+000 Argument of Perigee(rad): 1.230860417 Mean Anom(rad): 0.4743371198E+000 Af0(s): 0.6732940674E-003 Af1(s/s): -0.3637978807E-011 week: 336 ******** Week 336 almanac for PRN-04 ******** ID: 04 Health: 000 Eccentricity: 0.3470420837E-002 Time of Applicability(s): 503808.0000 Orbital Inclination(rad): 0.9686513433 Rate of Right Ascen(r/s): -0.8091765626E-008 SQRT(A) (m 1/2): 5153.531738 Right Ascen at Week(rad): 0.1914897129E+001 Argument of Perigee(rad): -2.951622465 Mean Anom(rad): -0.2667103484E+001 Af0(s): 0.8583068848E-005 Af1(s/s): 0.3637978807E-011 week: 336 ******** Week 336 almanac for PRN-05 ******** ID: 05 Health: 000 Eccentricity: 0.5680084229E-002 Time of Applicability(s): 503808.0000 Orbital Inclination(rad): 0.9779091570 Rate of Right Ascen(r/s): -0.7954617056E-008 SQRT(A) (m 1/2): 5153.567871 Right Ascen at Week(rad): 0.7839843994E+000 Argument of Perigee(rad): 1.434995959 Mean Anom(rad): -0.2167499498E+001 Af0(s): -0.2202987671E-003 Af1(s/s): 0.0000000000E+000 week: 336 ******** Week 336 almanac for PRN-06 ******** ID: 06 Health: 000 Eccentricity: 0.3452777863E-002 Time of Applicability(s): 503808.0000 Orbital Inclination(rad): 0.9883474169 Rate of Right Ascen(r/s): -0.7440309919E-008 SQRT(A) (m 1/2): 5153.610840 Right Ascen at Week(rad): -0.1937718090E+000 Argument of Perigee(rad): -0.697480766 Mean Anom(rad): 0.1937846171E+001 Af0(s): -0.5264282227E-003 Af1(s/s): -0.1091393642E-010 week: 336 ******** Week 336 almanac for PRN-07 ******** ID: 07 Health: 000 Eccentricity: 0.1985979080E-001 Time of Applicability(s): 503808.0000 Orbital Inclination(rad): 0.9511004459 Rate of Right Ascen(r/s): -0.7771752296E-008 SQRT(A) (m 1/2): 5153.643555 Right Ascen at Week(rad): 0.2924823492E+001 Argument of Perigee(rad): -2.025563582 Mean Anom(rad): 0.9554782833E+000 Af0(s): -0.7820129395E-004 Af1(s/s): -0.7275957614E-011 week: 336 ******** Week 336 almanac for PRN-08 ******** ID: 08 Health: 000 Eccentricity: 0.1070356369E-001 Time of Applicability(s): 503808.0000 Orbital Inclination(rad): 0.9455457577 Rate of Right Ascen(r/s): -0.8308917528E-008 SQRT(A) (m 1/2): 5153.553711 Right Ascen at Week(rad): -0.1307480061E+001 Argument of Perigee(rad): 0.463850923 Mean Anom(rad): -0.2474057470E+001 Af0(s): 0.5311965942E-003 Af1(s/s): 0.0000000000E+000 week: 336 ******** Week 336 almanac for PRN-09 ******** ID: 09 Health: 000 Eccentricity: 0.3498077393E-002 Time of Applicability(s): 503808.0000 Orbital Inclination(rad): 0.9626472466 Rate of Right Ascen(r/s): -0.8171768958E-008 SQRT(A) (m 1/2): 5153.586426 Right Ascen at Week(rad): 0.1851796440E+001 Argument of Perigee(rad): 2.011442045 Mean Anom(rad): -0.1904215815E+001 Af0(s): 0.7429122925E-003 Af1(s/s): 0.3637978807E-011 week: 336 ******** Week 336 almanac for PRN-10 ******** ID: 10 Health: 000 Eccentricity: 0.1052141190E-001 Time of Applicability(s): 503808.0000 Orbital Inclination(rad): 0.9907502540 Rate of Right Ascen(r/s): -0.7840326581E-008 SQRT(A) (m 1/2): 5153.601562 Right Ascen at Week(rad): 0.8390582794E+000 Argument of Perigee(rad): -2.316967501 Mean Anom(rad): -0.4508143333E+000 Af0(s): -0.5311965942E-003 Af1(s/s): -0.7275957614E-011 week: 336 ******** Week 336 almanac for PRN-11 ******** ID: 11 Health: 000 Eccentricity: 0.2169609070E-002 Time of Applicability(s): 503808.0000 Orbital Inclination(rad): 0.9651519496 Rate of Right Ascen(r/s): -0.7657461821E-008 SQRT(A) (m 1/2): 5153.683105 Right Ascen at Week(rad): -0.1713826553E+000 Argument of Perigee(rad): -2.369416086 Mean Anom(rad): 0.3013431480E+001 Af0(s): -0.6103515625E-003 Af1(s/s): 0.1091393642E-010 week: 336 ******** Week 336 almanac for PRN-12 ******** ID: 12 Health: 000 Eccentricity: 0.8754730225E-002 Time of Applicability(s): 503808.0000 Orbital Inclination(rad): 0.9597770247 Rate of Right Ascen(r/s): -0.8068907531E-008 SQRT(A) (m 1/2): 5153.572754 Right Ascen at Week(rad): -0.2241639906E+001 Argument of Perigee(rad): 1.519245434 Mean Anom(rad): 0.2817899488E+000 Af0(s): -0.5989074707E-003 Af1(s/s): 0.0000000000E+000 week: 336 ******** Week 336 almanac for PRN-13 ******** ID: 13 Health: 000 Eccentricity: 0.9753227234E-002 Time of Applicability(s): 503808.0000 Orbital Inclination(rad): 0.9745655583 Rate of Right Ascen(r/s): -0.7977475151E-008 SQRT(A) (m 1/2): 5153.630859 Right Ascen at Week(rad): 0.2024740790E+001 Argument of Perigee(rad): 0.997775107 Mean Anom(rad): -0.2749467691E+001 Af0(s): 0.6980895996E-003 Af1(s/s): 0.0000000000E+000 week: 336 ******** Week 336 almanac for PRN-14 ******** ID: 14 Health: 000 Eccentricity: 0.6178855896E-002 Time of Applicability(s): 503808.0000 Orbital Inclination(rad): 0.9431549048 Rate of Right Ascen(r/s): -0.8206056101E-008 SQRT(A) (m 1/2): 5153.578125 Right Ascen at Week(rad): -0.2293684024E+001 Argument of Perigee(rad): -2.763672743 Mean Anom(rad): 0.1038579146E+000 Af0(s): 0.6971359253E-003 Af1(s/s): 0.3637978807E-011 week: 336 ******** Week 336 almanac for PRN-15 ******** ID: 15 Health: 000 Eccentricity: 0.1671314240E-001 Time of Applicability(s): 503808.0000 Orbital Inclination(rad): 0.9402427381 Rate of Right Ascen(r/s): -0.8446066098E-008 SQRT(A) (m 1/2): 5153.571777 Right Ascen at Week(rad): 0.1711710963E+001 Argument of Perigee(rad): 1.464014261 Mean Anom(rad): 0.2799413072E+001 Af0(s): 0.3395080566E-003 Af1(s/s): 0.3637978807E-011 week: 336 ******** Week 336 almanac for PRN-16 ******** ID: 16 Health: 000 Eccentricity: 0.1452493668E-001 Time of Applicability(s): 503808.0000 Orbital Inclination(rad): 0.9589800738 Rate of Right Ascen(r/s): -0.8091765626E-008 SQRT(A) (m 1/2): 5153.511230 Right Ascen at Week(rad): -0.2224406590E+001 Argument of Perigee(rad): 0.895363913 Mean Anom(rad): -0.1524273566E+001 Af0(s): 0.1077651978E-003 Af1(s/s): 0.7275957614E-011 week: 336 ******** Week 336 almanac for PRN-17 ******** ID: 17 Health: 000 Eccentricity: 0.1315164566E-001 Time of Applicability(s): 503808.0000 Orbital Inclination(rad): 0.9613229897 Rate of Right Ascen(r/s): -0.8034620388E-008 SQRT(A) (m 1/2): 5153.699707 Right Ascen at Week(rad): -0.1205253873E+001 Argument of Perigee(rad): -1.191969360 Mean Anom(rad): -0.2515814254E+001 Af0(s): 0.1010894775E-003 Af1(s/s): -0.1455191523E-010 week: 336 ******** Week 336 almanac for PRN-18 ******** ID: 18 Health: 000 Eccentricity: 0.5630493164E-002 Time of Applicability(s): 503808.0000 Orbital Inclination(rad): 0.9732772541 Rate of Right Ascen(r/s): -0.7588887536E-008 SQRT(A) (m 1/2): 5153.634766 Right Ascen at Week(rad): -0.1964881084E+000 Argument of Perigee(rad): -2.903166874 Mean Anom(rad): 0.1747676745E+001 Af0(s): -0.5493164062E-003 Af1(s/s): 0.7275957614E-011 week: 336 ******** Week 336 almanac for PRN-19 ******** ID: 19 Health: 000 Eccentricity: 0.1080608368E-001 Time of Applicability(s): 503808.0000 Orbital Inclination(rad): 0.9605500072 Rate of Right Ascen(r/s): -0.8023191341E-008 SQRT(A) (m 1/2): 5153.612793 Right Ascen at Week(rad): -0.1161222707E+001 Argument of Perigee(rad): 2.871000090 Mean Anom(rad): -0.6710907537E+000 Af0(s): 0.6628036499E-003 Af1(s/s): 0.3637978807E-011 week: 336 ******** Week 336 almanac for PRN-21 ******** ID: 21 Health: 000 Eccentricity: 0.1149177551E-003 Time of Applicability(s): 503808.0000 Orbital Inclination(rad): 0.9605799678 Rate of Right Ascen(r/s): -0.8183198006E-008 SQRT(A) (m 1/2): 5153.617188 Right Ascen at Week(rad): 0.8527251644E+000 Argument of Perigee(rad): 0.348794125 Mean Anom(rad): -0.6186436660E+000 Af0(s): 0.2460479736E-003 Af1(s/s): 0.1818989404E-010 week: 336 ******** Week 336 almanac for PRN-22 ******** ID: 22 Health: 000 Eccentricity: 0.1287794113E-001 Time of Applicability(s): 503808.0000 Orbital Inclination(rad): 0.9583928468 Rate of Right Ascen(r/s): -0.8057478483E-008 SQRT(A) (m 1/2): 5153.584961 Right Ascen at Week(rad): -0.2221097446E+001 Argument of Perigee(rad): -1.038074310 Mean Anom(rad): -0.1932117712E+001 Af0(s): -0.9155273438E-004 Af1(s/s): 0.3637978807E-011 week: 336 ******** Week 336 almanac for PRN-23 ******** ID: 23 Health: 000 Eccentricity: 0.5695343018E-002 Time of Applicability(s): 503808.0000 Orbital Inclination(rad): 0.9858247376 Rate of Right Ascen(r/s): -0.7851755629E-008 SQRT(A) (m 1/2): 5153.627930 Right Ascen at Week(rad): 0.8077588545E+000 Argument of Perigee(rad): -2.829643279 Mean Anom(rad): 0.7128613951E+000 Af0(s): 0.5455017090E-003 Af1(s/s): 0.7275957614E-011 week: 336 ******** Week 336 almanac for PRN-24 ******** ID: 24 Health: 000 Eccentricity: 0.1740741730E-001 Time of Applicability(s): 503808.0000 Orbital Inclination(rad): 0.9349576949 Rate of Right Ascen(r/s): -0.7931758961E-008 SQRT(A) (m 1/2): 5153.616699 Right Ascen at Week(rad): 0.2819327483E+001 Argument of Perigee(rad): 1.094728236 Mean Anom(rad): 0.1942639487E+001 Af0(s): -0.2965927124E-003 Af1(s/s): 0.1091393642E-010 week: 336 ******** Week 336 almanac for PRN-25 ******** ID: 25 Health: 000 Eccentricity: 0.1247406006E-001 Time of Applicability(s): 503808.0000 Orbital Inclination(rad): 0.9481103818 Rate of Right Ascen(r/s): -0.8126052768E-008 SQRT(A) (m 1/2): 5153.514648 Right Ascen at Week(rad): -0.2333648044E+001 Argument of Perigee(rad): 1.130218020 Mean Anom(rad): 0.2612381266E+000 Af0(s): 0.4711151123E-003 Af1(s/s): 0.0000000000E+000 week: 336 ******** Week 336 almanac for PRN-26 ******** ID: 26 Health: 000 Eccentricity: 0.1038122177E-001 Time of Applicability(s): 503808.0000 Orbital Inclination(rad): 0.9289356219 Rate of Right Ascen(r/s): -0.8308917528E-008 SQRT(A) (m 1/2): 5153.572266 Right Ascen at Week(rad): -0.2405097992E+001 Argument of Perigee(rad): 0.650437440 Mean Anom(rad): -0.6139574595E+000 Af0(s): -0.2632141113E-003 Af1(s/s): -0.3637978807E-011 week: 336 ******** Week 336 almanac for PRN-27 ******** ID: 27 Health: 000 Eccentricity: 0.1354742050E-001 Time of Applicability(s): 503808.0000 Orbital Inclination(rad): 0.9546417844 Rate of Right Ascen(r/s): -0.8206056101E-008 SQRT(A) (m 1/2): 5153.594727 Right Ascen at Week(rad): -0.1276853250E+001 Argument of Perigee(rad): 0.852569369 Mean Anom(rad): -0.2391616114E+001 Af0(s): -0.2574920654E-004 Af1(s/s): 0.0000000000E+000 week: 336 ******** Week 336 almanac for PRN-28 ******** ID: 28 Health: 000 Eccentricity: 0.4048347473E-003 Time of Applicability(s): 503808.0000 Orbital Inclination(rad): 0.9620779959 Rate of Right Ascen(r/s): -0.7668890869E-008 SQRT(A) (m 1/2): 5153.642090 Right Ascen at Week(rad): 0.2897226443E+001 Argument of Perigee(rad): 0.411379492 Mean Anom(rad): 0.9486641279E+000 Af0(s): -0.6389617920E-003 Af1(s/s): 0.0000000000E+000 week: 336 ******** Week 336 almanac for PRN-29 ******** ID: 29 Health: 000 Eccentricity: 0.3328323364E-002 Time of Applicability(s): 503808.0000 Orbital Inclination(rad): 0.9639355508 Rate of Right Ascen(r/s): -0.8011762293E-008 SQRT(A) (m 1/2): 5153.534180 Right Ascen at Week(rad): -0.1188972180E+001 Argument of Perigee(rad): 2.787608610 Mean Anom(rad): -0.2592818891E+001 Af0(s): -0.4529953003E-003 Af1(s/s): 0.3637978807E-011 week: 336 ******** Week 336 almanac for PRN-30 ******** ID: 30 Health: 000 Eccentricity: 0.7677078247E-002 Time of Applicability(s): 503808.0000 Orbital Inclination(rad): 0.9363179045 Rate of Right Ascen(r/s): -0.7920329914E-008 SQRT(A) (m 1/2): 5153.572266 Right Ascen at Week(rad): 0.2918264375E+001 Argument of Perigee(rad): -2.354408466 Mean Anom(rad): 0.8170818325E+000 Af0(s): -0.3051757812E-004 Af1(s/s): 0.1091393642E-010 week: 336 ******** Week 336 almanac for PRN-31 ******** ID: 31 Health: 000 Eccentricity: 0.1081609726E-001 Time of Applicability(s): 503808.0000 Orbital Inclination(rad): 0.9549413900 Rate of Right Ascen(r/s): -0.7703178011E-008 SQRT(A) (m 1/2): 5153.682617 Right Ascen at Week(rad): 0.2948334294E+001 Argument of Perigee(rad): 0.875123306 Mean Anom(rad): -0.3622980992E-002 Af0(s): -0.1916885376E-003 Af1(s/s): 0.0000000000E+000 week: 336 ******** Week 336 almanac for PRN-32 ******** ID: 32 Health: 000 Eccentricity: 0.8669853210E-002 Time of Applicability(s): 503808.0000 Orbital Inclination(rad): 0.9657931056 Rate of Right Ascen(r/s): -0.8137481816E-008 SQRT(A) (m 1/2): 5153.606934 Right Ascen at Week(rad): 0.1868220446E+001 Argument of Perigee(rad): -2.060272519 Mean Anom(rad): -0.1736549018E+001 Af0(s): -0.3185272217E-003 Af1(s/s): 0.1455191523E-010 week: 336